Tracking 28126 objects as of 2-Oct-2023
HD Live streaming from Space Station
objects crossing your sky now

STARLINK-5619

Track STARLINK-5619 now!
10-day predictions
STARLINK-5619 is classified as:


NORAD ID: 55755
Int'l Code: 2023-028Q
Perigee: 577.1 km
Apogee: 581.2 km
Inclination: 70.0 °
Period: 96.1 minutes
Semi major axis: 6950 km
RCS: Unknown
Launch date: March 3, 2023
Source: United States (US)
Launch site: AIR FORCE WESTERN TEST RANGE (AFWTR)
Your satellite tracking list
Your tracking list is empty




NASA's NSSDC Master Catalog

Two Line Element Set (TLE):
1 55755U 23028Q   23274.57572702  .00000452  00000-0  45672-4 0  9994
2 55755  69.9993 328.5853 0002938 270.9893  89.0929 14.98332371 32719
Source of the keplerian elements: AFSPC